EW6672 Weather Reports


Display with metric or nautical units.
time (UTC)temp
F
wind
direction
speed
MPH
gust
MPH
rain 1hr
in
rain 24hr
in
rain mn
in
humidity
%
barometer
mb
20181120234020 45 292 1.0 6.0 0.17 1.13 0.15 99 912.1
20181120233020 45 0 1.0 12.0 0.16 1.13 0.13 99 912.1
20181120232020 45 0 3.0 12.0 0.14 1.13 0.11 99 912.3
20181120231020 45 292 1.0 4.0 0.10 1.13 0.07 99 912.3
20181120230020 45 135 1.0 6.0 0.05 1.12 0.02 99 912.4
20181120225024 45 0 1.0 5.0 0.03 1.12 1.12 99 912.7
20181120224022 44 337 2.0 4.0 0.01 1.12 1.12 99 912.2
20181120223022 44 337 2.0 4.0 0.00 1.12 1.12 99 912.1
20181120222023 44 337 2.0 4.0 0.00 1.12 1.12 99 912.0
20181120221022 44 0 1.0 3.0 0.02 1.12 1.12 99 912.3
20181120220021 44 135 1.0 3.0 0.06 1.12 1.12 99 912.2
20181120215021 44 0.0 1.0 0.08 1.12 1.12 99 911.8
20181120214020 44 0.0 2.0 0.12 1.12 1.12 99 911.7
20181120213019 44 0 1.0 3.0 0.17 1.13 1.12 98 911.8
20181120212021 44 22 2.0 6.0 0.23 1.13 1.12 98 911.9
20181120211020 44 45 3.0 9.0 0.26 1.13 1.12 98 911.7
20181120210021 44 22 2.0 8.0 0.28 1.13 1.11 98 912.0
20181120205018 44 0 3.0 9.0 0.33 1.13 1.11 98 911.2
20181120204136 44 0 1.0 7.0 0.33 1.12 1.11 98 911.7
20181120203020 44 22 2.0 7.0 0.29 1.12 1.10 99 912.0
20181120202020 45 67 2.0 6.0 0.27 1.11 1.09 99 912.1
20181120201021 45 292 2.0 6.0 0.25 1.11 1.09 98 912.4
20181120200021 45 135 1.0 6.0 0.25 1.11 1.08 99 912.1
20181120195018 45 22 2.0 8.0 0.29 1.11 1.08 99 912.0
20181120161019 45 22 1.0 8.0 0.59 9.20 8.82 99 911.1
20181120160020 45 0.0 1.0 0.64 9.08 8.70 99 910.7
20181120155020 45 0.0 1.0 0.65 8.99 8.61 99 911.0
20181120154020 45 0 1.0 3.0 0.64 8.88 8.51 99 911.3
20181120153020 43 0.0 3.0 0.70 8.80 8.41 99 911.4
20181120152020 42 0.0 2.0 0.84 8.72 8.33 99 911.5
20181120151019 41 67 1.0 3.0 0.93 8.62 8.22 98 911.2
20181120150021 41 0.0 3.0 1.04 8.46 8.06 98 911.3
20181120145021 40 0.0 2.0 1.51 8.37 7.96 98 911.1
20181120144022 40 0.0 2.0 1.77 8.28 7.86 97 911.7
20181120143021 41 292 1.0 2.0 1.63 8.12 7.70 96 912.5
20181120142020 43 157 3.0 14.0 1.45 7.91 7.49 97 912.8
20181120141021 44 157 4.0 19.0 1.26 7.70 7.29 97 911.9
20181120140021 45 45 3.0 13.0 1.01 7.43 7.01 94 911.1
20181120135021 51 225 5.0 19.0 0.55 6.86 6.44 92 910.9
20181120134021 54 202 2.0 10.0 0.20 6.51 6.09 98 910.1
20181120133021 54 180 3.0 9.0 0.18 6.49 6.07 97 910.4
20181120132027 54 135 6.0 14.0 0.14 6.46 6.03 97 910.1
20181120131022 54 157 5.0 16.0 0.13 6.44 6.02 98 910.0
20181120130018 53 157 4.0 16.0 0.11 6.42 6.00 97 910.1
20181120125018 53 202 5.0 18.0 0.00 6.32 5.89 98 910.5
20181120124018 53 90 4.0 13.0 0.02 6.31 5.88 98 910.9
20181120123018 53 180 7.0 17.0 0.11 6.31 5.88 99 911.5
20181120122020 52 157 6.0 16.0 0.36 6.31 5.88 99 911.3
20181120121018 52 135 5.0 13.0 0.66 6.31 5.88 99 911.2
20181120120020 50 157 4.0 17.0 1.00 6.31 5.88 99 910.8
20181120115021 47 0 2.0 8.0 1.15 6.31 5.88 98 910.9
20181120114023 46 67 1.0 5.0 1.74 6.29 5.86 98 911.1
20181120113023 46 0 1.0 6.0 1.91 6.20 5.77 98 911.5
20181120112022 46 0 1.0 5.0 1.93 5.95 5.52 98 911.4
20181120111020 46 135 1.0 4.0 1.92 5.64 5.22 97 912.0
20181120110021 45 0 2.0 5.0 2.25 5.31 4.88 97 910.9
20181120091022 54 202 7.0 18.0 0.22 2.14 1.72 93 911.2
20181120090021 54 157 5.0 15.0 0.14 2.05 1.62 94 911.4
20181120085020 53 157 6.0 19.0 0.10 1.96 1.53 94 911.5
20181120084018 54 135 7.0 31.0 0.23 1.94 1.51 93 911.7
20181120083019 54 202 8.0 36.0 0.23 1.93 1.51 93 911.3
20181120082018 53 157 7.0 18.0 0.32 1.92 1.49 92 911.2
20181120081018 53 202 7.0 30.0 0.36 1.92 1.49 93 911.3
20181120080018 54 180 5.0 20.0 0.39 1.91 1.48 93 910.4
20181120075018 54 202 3.0 8.0 0.37 1.85 1.43 93 910.3
20181120074018 55 180 7.0 19.0 0.24 1.70 1.28 93 910.1
20181120073018 55 157 7.0 17.0 0.25 1.70 1.27 93 910.9
20181120072017 54 157 3.0 9.0 0.18 1.59 1.17 93 910.5
20181120071017 54 157 5.0 17.0 0.17 1.55 1.13 93 911.0
20181120070018 54 135 6.0 24.0 0.17 1.51 1.09 92 911.2
20181120065017 54 135 5.0 23.0 0.21 1.48 1.05 92 911.3
20181120064019 53 157 4.0 19.0 0.24 1.46 1.03 93 911.5
20181120063018 53 202 3.0 19.0 0.27 1.44 1.01 93 911.3
20181120062017 53 180 3.0 15.0 0.29 1.40 0.98 93 911.0
20181120061021 53 247 2.0 11.0 0.28 1.38 0.96 94 911.3
20181120060021 53 90 1.0 6.0 0.33 1.34 0.92 94 910.9
20181120055019 53 202 2.0 8.0 0.29 1.26 0.84 94 911.3
20181120054021 53 202 4.0 23.0 0.24 1.22 0.79 93 911.0
20181120053017 53 157 7.0 19.0 0.19 1.16 0.74 92 911.3
20181120052018 53 202 4.0 13.0 0.18 1.11 0.69 93 910.4
20181120051019 53 157 3.0 12.0 0.17 1.10 0.67 93 910.8
20181120050018 53 202 2.0 8.0 0.09 1.01 0.59 94 910.5
20181120045020 53 202 3.0 14.0 0.08 0.97 0.55 94 910.7
20181120044019 54 202 2.0 11.0 0.09 0.97 0.55 94 910.9
20181120043020 54 270 2.0 9.0 0.09 0.96 0.54 93 910.6
20181120042020 54 112 3.0 9.0 0.14 0.92 0.50 93 910.3
20181120041019 54 292 2.0 8.0 0.19 0.92 0.50 93 910.4
20181120040020 54 202 3.0 13.0 0.20 0.92 0.49 93 910.2
20181120035020 53 225 3.0 20.0 0.29 0.88 0.46 93 910.2
20181120034019 53 180 4.0 13.0 0.32 0.88 0.45 92 909.9
20181120033019 53 225 4.0 15.0 0.31 0.87 0.44 93 910.4
20181120032019 53 180 4.0 14.0 0.24 0.78 0.36 93 910.3
20181120031019 53 202 4.0 16.0 0.20 0.73 0.30 92 910.5
20181120030020 52 225 3.0 14.0 0.19 0.71 0.29 90 910.5
20181120025019 53 135 5.0 17.0 0.11 0.59 0.17 87 911.8
20181120024018 52 135 5.0 16.0 0.07 0.55 0.13 88 911.3
20181120023018 52 202 3.0 16.0 0.08 0.55 0.13 88 911.1
20181120022019 52 157 6.0 19.0 0.07 0.54 0.11 91 911.5
20181120021020 52 157 5.0 18.0 0.06 0.52 0.10 91 911.1
20181120020019 52 157 4.0 13.0 0.06 0.51 0.09 91 911.0
20181120015019 52 157 6.0 19.0 0.02 0.48 0.05 91 911.1
20181120014019 52 157 6.0 15.0 0.02 0.48 0.05 90 911.5
20181120013019 52 157 6.0 16.0 0.01 0.48 0.04 91 911.4
20181120012019 52 157 5.0 18.0 0.01 0.49 0.04 92 911.2
20181120011019 52 135 5.0 11.0 0.00 0.48 0.03 92 911.7
20181120010020 52 135 5.0 11.0 0.00 0.48 0.03 92 911.6
20181120005019 51 157 5.0 13.0 0.00 0.48 0.03 92 911.6
20181120004018 51 157 4.0 12.0 0.00 0.48 0.03 91 911.6
20181120003019 51 157 4.0 16.0 0.00 0.51 0.03 93 911.9
20181120002021 51 157 5.0 11.0 0.00 0.51 0.03 93 912.0
20181120001019 50 157 6.0 13.0 0.02 0.52 0.03 93 912.0
20181120000019 49 202 3.0 10.0 0.02 0.55 0.03 96 911.7
20181119235020 47 90 2.0 7.0 0.03 0.55 0.03 95 911.7